This demonstration page uses our WeatherBlox Daily Observations layout. Learn more.

Left ArrowRight Arrow

36.19886, -115.1175

Hourly Observations for January 15, 2022

Temp ( °F °C ) Dew Point ( °F °C ) Humidity (%) Winds ( mph kmh ) Pressure ( in mb ) Visibility ( mi km ) Precip ( " mm )
12:53 am 00:53 Clear 53 11.7 22 -5.6 30 30 N 10 17 30.39 1029 10 16 0.00 0.00
1:53 am 01:53 Clear 51 10.6 22 -5.6 32 32 NNW 8 13 30.40 1029 10 16 0.00 0.00
2:53 am 02:53 Clear 50 10 21 -6.1 32 32 NW 8 13 30.40 1030 10 16 0.00 0.00
3:53 am 03:53 Clear 49 9.4 21 -6.1 33 33 NNW 12 19 30.41 1030 10 16 0.00 0.00
4:53 am 04:53 Clear 48 8.9 20 -6.7 33 33 NW 7 11 30.41 1030 10 16 0.00 0.00
5:53 am 05:53 Clear 44 6.7 20 -6.7 38 38 Calm 30.43 1030 10 16 0.00 0.00
6:53 am 06:53 Sunny 45 7.2 21 -6.1 39 39 Calm 30.45 1031 10 16 0.00 0.00
7:53 am 07:53 Sunny 47 8.3 20 -6.7 34 34 Calm 30.47 1032 10 16 0.00 0.00
8:53 am 08:53 Sunny 50 10 20 -6.7 30 30 WNW 7 11 30.47 1032 10 16 0.00 0.00
9:53 am 09:53 Sunny 53 11.7 20 -6.7 27 27 NNW 6 9 30.46 1031 10 16 0.00 0.00
10:53 am 10:53 Sunny 58 14.4 21 -6.1 24 24 ESE 3 6 30.42 1030 10 16 0.00 0.00
11:53 am 11:53 Sunny 57 13.9 20 -6.7 24 24 Calm 30.38 1029 10 16 0.00 0.00
12:53 pm 12:53 Sunny 59 15 19 -7.2 21 21 WSW 5 7 30.35 1028 10 16 0.00 0.00
1:53 pm 13:53 Sunny 59 15 18 -7.8 20 20 SW 3 6 30.32 1027 10 16 0.00 0.00
2:53 pm 14:53 Sunny 60 15.6 18 -7.8 19 19 WSW 5 7 30.31 1027 10 16 0.00 0.00
3:53 pm 15:53 Sunny 60 15.6 18 -7.8 19 19 Calm 30.30 1026 10 16 0.00 0.00
4:53 pm 16:53 Clear 59 15 20 -6.7 22 22 W 5 7 30.30 1026 10 16 0.00 0.00
5:53 pm 17:53 Clear 54 12.2 20 -6.7 26 26 NW 5 7 30.31 1027 10 16 0.00 0.00
6:53 pm 18:53 Clear 51 10.6 23 -5 33 33 WNW 7 11 30.32 1027 10 16 0.00 0.00
7:53 pm 19:53 Clear 50 10 23 -5 35 35 W 5 7 30.31 1027 10 16 0.00 0.00
8:53 pm 20:53 Clear 47 8.3 22 -5.6 37 37 WNW 5 7 30.31 1026 10 16 0.00 0.00
9:53 pm 21:53 Clear 47 8.3 21 -6.1 36 36 W 6 9 30.30 1026 10 16 0.00 0.00
10:53 pm 22:53 Clear 44 6.7 21 -6.1 40 40 NW 5 7 30.30 1026 10 16 0.00 0.00
11:53 pm 23:53 Clear 44 6.7 19 -7.2 37 37 WNW 5 7 30.29 1026 10 16 0.00 0.00

Powered by AerisWeather